Date,TemperatureHighF,TemperatureAvgF,TemperatureLowF,DewpointHighF,DewpointAvgF,DewpointLowF,HumidityHigh,HumidityAvg,HumidityLow,PressureMaxIn,PressureMinIn,WindSpeedMaxMPH,WindSpeedAvgMPH,GustSpeedMaxMPH,PrecipitationSumIn
2013-12-1,58,50,43,-100,-100,-100,0,0,100,0.00,40.00,6,1,6,0.00
2013-12-2,65,47,29,-100,-100,-100,0,0,100,0.00,40.00,4,2,6,0.00
2013-12-3,68,51,39,-100,-100,-100,0,0,100,0.00,40.00,7,-20,11,0.00
2013-12-4,65,55,47,-100,-100,-100,0,0,100,0.00,40.00,10,4,14,0.00
2013-12-5,53,47,38,-100,-100,-100,0,0,100,0.00,40.00,8,4,11,0.00
2013-12-6,49,36,26,-100,-100,-100,0,0,100,0.00,40.00,5,1,8,0.00
2013-12-7,41,31,25,-100,-100,-100,0,0,100,0.00,40.00,6,3,8,0.00
2013-12-8,51,39,25,-100,-100,-100,0,0,100,0.00,40.00,6,2,11,0.00
2013-12-9,51,36,21,-100,-100,-100,0,0,100,0.00,40.00,10,-47,11,0.00
2013-12-10,44,30,14,-100,-100,-100,0,0,100,0.00,40.00,4,2,5,0.00
2013-12-11,53,35,21,-100,-100,-100,0,0,100,0.00,40.00,4,2,6,0.00
2013-12-12,42,36,32,-100,-100,-100,0,0,100,0.00,40.00,3,2,5,0.00
2013-12-13,54,40,29,-100,-100,-100,0,0,100,0.00,40.00,10,3,14,0.00
2013-12-14,51,42,29,-100,-100,-100,0,0,100,0.00,40.00,5,2,7,0.00
2013-12-15,55,34,20,-100,-100,-100,0,0,100,0.00,40.00,3,1,7,0.00
2013-12-16,60,41,24,-100,-100,-100,0,0,100,0.00,40.00,3,1,4,0.00
2013-12-17,63,46,29,-100,-100,-100,0,0,100,0.00,40.00,5,1,8,0.00
2013-12-18,59,39,25,-100,-100,-100,0,0,100,0.00,40.00,4,1,8,0.00
2013-12-19,66,44,29,-100,-100,-100,0,0,100,0.00,40.00,7,2,9,0.00
2013-12-20,55,46,36,-100,-100,-100,0,0,100,0.00,40.00,5,2,7,0.00
2013-12-21,44,38,31,-100,-100,-100,0,0,100,0.00,40.00,12,6,15,0.00
2013-12-22,51,38,26,-100,-100,-100,0,0,100,0.00,40.00,6,2,10,0.00
2013-12-23,51,34,20,-100,-100,-100,0,0,100,0.00,40.00,4,1,7,0.00
2013-12-24,56,37,18,-100,-100,-100,0,0,100,0.00,40.00,4,1,4,0.00
2013-12-25,51,37,26,-100,-100,-100,0,0,100,0.00,40.00,5,2,6,0.00
2013-12-26,50,32,19,-100,-100,-100,0,0,100,0.00,40.00,4,1,5,0.00
2013-12-27,51,32,19,-100,-100,-100,0,0,100,0.00,40.00,3,1,6,0.00
2013-12-28,53,35,18,-100,-100,-100,0,0,100,0.00,40.00,5,1,6,0.00
2013-12-29,47,38,26,-100,-100,-100,0,0,100,0.00,40.00,6,2,8,0.00
2013-12-30,54,32,17,-100,-100,-100,0,0,100,0.00,40.00,5,1,5,0.00
2013-12-31,56,34,18,-100,-100,-100,0,0,100,0.00,40.00,5,1,5,0.00